Tue, 21 Sep 2021 15:35:55 UTC

Information for RPM xxhash-libs-0.7.3-1.fc32.i686.rpm

ID20813753
Namexxhash-libs
Version0.7.3
Release1.fc32
Epoch
Archi686
SummaryExtremely fast hash algorithm - library
DescriptionxxHash is an Extremely fast Hash algorithm, running at RAM speed limits. It successfully completes the SMHasher test suite which evaluates collision, dispersion and randomness qualities of hash functions. Code is highly portable, and hashes are identical on all platforms (little / big endian).
Build Time2020-03-06 16:26:10 GMT
Size37,236
9fda8aa07a99934bcbfb1edcee60db2d
LicenseBSD
Buildrootf32-build-19712405-1401659
Provides
libxxhash.so.0
xxhash-libs = 0.7.3-1.fc32
xxhash-libs(x86-32) = 0.7.3-1.fc32
Obsoletes No Obsoletes
Conflicts No Conflicts
Requires
libc.so.6
libc.so.6(GLIBC_2.0)
libc.so.6(GLIBC_2.1.3)
libc.so.6(GLIBC_2.3.4)
libc.so.6(GLIBC_2.4)
rpmlib(CompressedFileNames) <= 3.0.4-1
rpmlib(FileDigests) <= 4.6.0-1
rpmlib(PayloadFilesHavePrefix) <= 4.0-1
rpmlib(PayloadIsZstd) <= 5.4.18-1
rtld(GNU_HASH)
Recommends No Recommends
Suggests No Suggests
Supplements No Supplements
Enhances No Enhances
Files
1 through 9 of 9
Name ascending sort Size
/usr/lib/.build-id0
/usr/lib/.build-id/380
/usr/lib/.build-id/38/c2b8db31f99a8c8f7de4546bb349714814565938
/usr/lib/libxxhash.so.018
/usr/lib/libxxhash.so.0.7.352,420
/usr/share/doc/xxhash-libs0
/usr/share/doc/xxhash-libs/README.md9,819
/usr/share/licenses/xxhash-libs0
/usr/share/licenses/xxhash-libs/LICENSE2,236
Component of
Page:
1 through 50 of 36655 >>>
Buildroot descending sort Created State
f32-build-21387661-1680084 2020-07-06 00:06:28 expired
f32-build-21387656-1680084 2020-07-06 00:06:05 expired
f32-build-21387604-1680084 2020-07-05 23:58:41 expired
f32-build-21387545-1680084 2020-07-05 23:48:15 expired
f32-build-21387516-1680084 2020-07-05 23:47:24 expired
f32-build-21387508-1680084 2020-07-05 23:47:09 expired
f32-build-21387459-1680084 2020-07-05 23:42:56 expired
f32-build-21387454-1680084 2020-07-05 23:42:35 expired
f32-build-21387347-1680084 2020-07-05 23:24:19 expired
f32-build-21387346-1680084 2020-07-05 23:24:16 expired
f32-build-21387343-1680084 2020-07-05 23:24:04 expired
f32-build-21387296-1680084 2020-07-05 23:11:19 expired
f32-build-21387087-1680084 2020-07-05 22:40:31 expired
f32-build-21387072-1680084 2020-07-05 22:39:43 expired
f32-build-21387029-1680084 2020-07-05 22:36:06 expired
f32-build-21386937-1680084 2020-07-05 22:29:09 expired
f32-build-21386911-1680084 2020-07-05 22:28:19 expired
f32-build-21386900-1680084 2020-07-05 22:27:59 expired
f32-build-21386850-1680084 2020-07-05 22:24:42 expired
f32-build-21386844-1680084 2020-07-05 22:24:19 expired
f32-build-21386760-1680084 2020-07-05 22:17:08 expired
f32-build-21386743-1680084 2020-07-05 22:16:37 expired
f32-build-21386731-1680084 2020-07-05 22:16:18 expired
f32-build-21386728-1680084 2020-07-05 22:16:04 expired
f32-build-21386700-1680084 2020-07-05 22:03:25 expired
f32-build-21386481-1680084 2020-07-05 21:51:35 expired
f32-build-side-24797-21386398-1681232 2020-07-05 21:11:50 expired
f32-build-side-24797-21386392-1681232 2020-07-05 21:11:37 expired
f32-build-21386326-1680084 2020-07-05 21:02:41 expired
f32-build-side-24797-21386301-1681232 2020-07-05 20:43:22 expired
f32-build-21386129-1680084 2020-07-05 20:07:07 expired
f32-build-21385940-1680084 2020-07-05 19:30:44 expired
f32-build-21385884-1680084 2020-07-05 19:22:27 expired
f32-build-21385875-1680084 2020-07-05 19:22:08 expired
f32-build-21385859-1680084 2020-07-05 19:21:16 expired
f32-build-21385802-1680084 2020-07-05 19:11:50 expired
f32-build-21385727-1680084 2020-07-05 19:06:50 expired
f32-build-21385633-1680084 2020-07-05 19:02:03 expired
f32-build-21385369-1680084 2020-07-05 18:35:47 expired
f32-build-21385301-1680084 2020-07-05 18:30:38 expired
f32-build-21385299-1680084 2020-07-05 18:30:19 expired
f32-build-21385242-1680084 2020-07-05 18:25:50 expired
f32-build-21385235-1680084 2020-07-05 18:25:24 expired
f32-build-21385167-1680084 2020-07-05 18:20:24 expired
f32-build-21385163-1680084 2020-07-05 18:20:10 expired
f32-build-21385078-1680084 2020-07-05 18:16:01 expired
f32-build-21384993-1680084 2020-07-05 18:03:30 expired
f32-build-21384947-1680084 2020-07-05 17:55:52 expired
f32-build-21384790-1680084 2020-07-05 17:46:19 expired
f32-build-21384715-1680084 2020-07-05 17:39:13 expired